This is the latest recevied weather packets stored in our database for station/object SV2RIM-2. If no packets are shown the sender has not sent any weather packets the latest 10 day(s).
| Time | Temp. | Humidity | Pressure | Rain* | Wind** | Luminosity | Snow |
|---|---|---|---|---|---|---|---|
| 1788019819 | 27.78° C | 48% | 1014.9 hPa | - | - | - | - |
| 1788019219 | 27.78° C | 48% | 1015 hPa | - | - | - | - |
| 1788018619 | 28.33° C | 47% | 1015 hPa | - | - | - | - |
| 1788018019 | 28.33° C | 47% | 1015.1 hPa | - | - | - | - |
| 1788017419 | 28.89° C | 47% | 1015 hPa | - | - | - | - |
| 1788016819 | 28.89° C | 47% | 1015.1 hPa | - | - | - | - |
| 1788016218 | 29.44° C | 47% | 1015.2 hPa | - | - | - | - |
| 1788015619 | 30° C | 47% | 1015.3 hPa | - | - | - | - |
| 1788015019 | 30° C | 45% | 1015.4 hPa | - | - | - | - |
| 1788014419 | 30° C | 46% | 1015.3 hPa | - | - | - | - |
| 1788013819 | 30.56° C | 45% | 1015.3 hPa | - | - | - | - |
| 1788013219 | 30.56° C | 46% | 1015.4 hPa | - | - | - | - |
| 1788012619 | 32.22° C | 47% | 1015.5 hPa | - | - | - | - |
| 1788012019 | 33.33° C | 46% | 1015.5 hPa | - | - | - | - |
| 1788011419 | 33.33° C | 46% | 1015.5 hPa | - | - | - | - |
| 1788010819 | 33.33° C | 46% | 1015.3 hPa | - | - | - | - |
| 1788010219 | 33.89° C | 47% | 1015.4 hPa | - | - | - | - |
| 1788009619 | 33.89° C | 47% | 1015.5 hPa | - | - | - | - |
| 1788009019 | 33.89° C | 47% | 1015.6 hPa | - | - | - | - |
| 1788008419 | 33.89° C | 48% | 1015.7 hPa | - | - | - | - |
| 1788007819 | 34.44° C | 48% | 1015.9 hPa | - | - | - | - |
| 1788007219 | 33.89° C | 49% | 1016 hPa | - | - | - | - |
| 1788006619 | 33.89° C | 49% | 1016.1 hPa | - | - | - | - |
| 1788006019 | 33.33° C | 51% | 1016.1 hPa | - | - | - | - |
| 1788005419 | 32.78° C | 52% | 1016.2 hPa | - | - | - | - |
* Rain since midnight (hover to see other rain measurements)
** Current wind speed in m/s (hover to see current wind gust speed)